Meath Environmental Platform

Observations for Trim Market St

Time AQI Temp °C Hum % Pres Pa CO μg/m³ H₂S μg/m³ NO μg/m³ NO₂ μg/m³ O₃ μg/m³ SO₂ μg/m³ PM1 μg/m³ PM2.5 μg/m³ PM10 μg/m³
Sunday 16 August 2026
22:44 2 19.5 81 2,147,483,647 0.1 0 1.99 5.3 51.54 0 0 1.13 3.6
22:38 2 19.5 81 2,147,483,647 0.11 0 1.78 5.29 52.89 0 0 1.13 4.16
22:37 2 19.5 81 2,147,483,647 0.09 0 1.84 2.91 51.71 0 0.71 1.61 4.15
22:36 2 19.5 81 2,147,483,647 0.09 0 1.86 4.4 51.56 0 0.71 1.14 3.59
22:30 2 19.4 80 2,147,483,647 0.11 0 1.74 5.92 55.35 0 0 1.63 4.14
22:29 2 19.4 80 2,147,483,647 0.1 0 1.77 8.39 53.78 0 0 2.1 4.7
22:27 2 19.4 80 2,147,483,647 0.09 0 1.86 7.54 54.58 0 0.71 2.1 4.7
22:26 2 19.4 80 2,147,483,647 0.12 0 1.84 13.56 51.96 0 0 1.16 4.13
22:25 2 19.4 80 2,147,483,647 0.15 0 1.91 7.95 52.45 0 0.71 2.11 4.7
22:23 2 19.4 80 2,147,483,647 0.13 0 1.95 6.26 53.07 0 0 1.64 4.13
22:22 2 19.4 80 2,147,483,647 0.12 0 1.86 3.78 53.14 0 0 1.17 3.56
22:21 2 19.4 80 2,147,483,647 0.14 0 1.83 11.09 51.27 0 0.71 2.58 5.83
22:19 2 19.4 80 2,147,483,647 0.35 0 1.58 6.24 55.03 0 0.71 1.17 3.56
22:18 2 19.4 80 2,147,483,647 0.49 0 1.55 1.96 57.81 0 1.43 3.54 6.39
22:15 2 19.4 80 2,147,483,647 0.28 0 1.57 4.48 56.94 0 0 1.18 3.55
22:14 2 19.4 80 2,147,483,647 0.35 0 1.56 2.82 55.34 0 0.71 2.13 4.68
22:12 2 19.3 80 2,147,483,647 0.3 0 1.65 4.36 54.34 0 0.71 2.13 5.25
22:10 2 19.3 79 2,147,483,647 0.25 0 1.57 3.79 53.29 0 0.71 2.61 5.25
22:01 2 19.3 79 2,147,483,647 0.46 0 1.71 8.58 54.87 0 0.71 2.16 4.66
22:00 2 19.3 79 2,147,483,647 0.36 0 1.75 1.6 56.85 0 0 1.69 4.08